{"data":{"norad_id":57991,"epoch":"2026-05-24T23:18:39.849984Z","epoch_age_seconds":81508,"freshness":"FRESH","line1":"1 57991U 23153A   26144.97129456 -.00000442  00000+0 -65225-5 0  9991","line2":"2 57991  43.0067 356.1779 0002162 267.6947  92.3657 15.27574116146465","mean_motion":15.27574116,"eccentricity":0.0002162,"inclination_deg":43.0067,"raan_deg":356.1779,"arg_perigee_deg":267.6947,"mean_anomaly_deg":92.3657,"bstar":-6.5225e-6,"rev_number":14646,"period_min":94.267111815869,"perigee_km":481.5833226658,"apogee_km":484.55010715213,"semimajor_km":6861.203714909,"source":"CELESTRAK","updated_at":"2026-05-25T13:38:18.489335Z"}}